Waarnemingen

Advertentie
Mijn weer
Svanberga, Zweden (2490): temperatuur & dauwpunt: 11.01.2019 01:00:00 - 17.01.2019 01:00:00 (CET)Svanberga, Zweden (2490): windsnelheid & windstoten: 11.01.2019 01:00:00 - 17.01.2019 01:00:00 (CET)Svanberga, Zweden (2490): windrichting: 11.01.2019 01:00:00 - 17.01.2019 01:00:00 (CET)Svanberga, Zweden (2490): luchtdruk: 11.01.2019 01:00:00 - 17.01.2019 01:00:00 (CET)Svanberga, Zweden (2490): zicht: 11.01.2019 01:00:00 - 17.01.2019 01:00:00 (CET)Svanberga, Zweden (2490): neerslag: 11.01.2019 01:00:00 - 17.01.2019 01:00:00 (CET)
Datum & Tijd tt [°C] td [°C] ff [km/u] ff [kn] fx [km/u] fx [kn] dd ppp [hPa] vv [km] rr [mm]
17.01.2019 01:00:00 0,9 0,9 2 1 14 7 ZW 978,6 4,9 0,1
17.01.2019 00:00:00 0,5 0,4 2 1 14 7 ZW 978,8 14 0,0
16.01.2019 23:00:00 0,6 0,5 4 2 14 8 W 979,5 12 0,1
16.01.2019 22:00:00 0,6 0,5 5 3 11 6 ZW 979,8 45 0,1
16.01.2019 21:00:00 0,1 0,0 5 3 22 12 ZO 980,7 3,9 0,7
16.01.2019 20:00:00 -0,1 -0,4 12 7 24 13 OZO 982,0 1,0 2,0
16.01.2019 19:00:00 -0,9 -1,3 14 7 27 15 OZO 984,6 0,6 1,8
16.01.2019 18:00:00 -1,6 -2,2 11 6 24 13 OZO 986,9 1,2 1,2
16.01.2019 17:00:00 -3,3 -3,8 7 4 15 8 O 989,3 0,8 1,1
16.01.2019 16:00:00 -4,8 -5,8 6 4 11 6 O 991,4 1,2 0,5
16.01.2019 15:00:00 -6,3 -7,8 6 3 9 5 OZO 993,4 43 0,0
16.01.2019 14:00:00 -7,1 -8,7 4 2 9 5 ZO 994,9 45 0,0
16.01.2019 13:00:00 -8,7 -10,2 0 0 4 2 N 996,0 45 0,0
16.01.2019 12:00:00 -10,0 -11,3 2 1 4 2 NO 996,7 39 0,0
16.01.2019 11:00:00 -11,3 -12,2 0 0 5 3 N 997,3 40 0,0
16.01.2019 10:00:00 -13,6 -14,4 2 1 3 2 ZZW 998,1 47 0,0
16.01.2019 09:00:00 -15,0 -16,0 0 0 4 2 N 998,4 50 0,0
16.01.2019 08:00:00 -16,2 -17,5 3 2 5 3 ZW 998,3 50 0,0
16.01.2019 07:00:00 -14,6 -15,6 0 0 4 2 N 997,7 50 0,0
16.01.2019 06:00:00 -14,4 -15,4 0 0 8 4 N 997,5 50 0,0
16.01.2019 05:00:00 -12,2 -12,7 5 3 9 5 W 997,7 50 0,0
16.01.2019 04:00:00 -12,1 -13,3 4 2 8 4 W 997,3 50 0,0
16.01.2019 03:00:00 -12,1 -13,4 3 2 8 5 W 997,3 50 0,0
16.01.2019 02:00:00 -12,8 -14,1 2 1 7 4 WZW 996,5 49 0,0
16.01.2019 01:00:00 -11,3 -12,3 4 2 9 5 W 995,9 45 0,0
16.01.2019 00:00:00 -11,4 -12,3 3 2 8 4 W 995,3 49 0,0
15.01.2019 23:00:00 -10,3 -11,6 3 2 8 5 WZW 994,9 49 0,0
15.01.2019 22:00:00 -7,5 -9,6 3 2 11 6 W 994,5 50 0,0
15.01.2019 21:00:00 -7,1 -9,0 3 1 11 6 WZW 993,9 50 0,0
15.01.2019 20:00:00 -6,4 -8,5 4 2 9 5 W 993,5 50 0,0
15.01.2019 19:00:00 -8,4 -9,3 0 0 6 3 N 993,1 50 0,0
15.01.2019 18:00:00 -8,1 -9,3 0 0 6 4 N 993,0 50 0,0
15.01.2019 17:00:00 -7,0 -8,8 0 0 8 4 N 993,1 50 0,0
15.01.2019 16:00:00 -5,9 -8,8 2 1 9 5 ZW 993,1 50 0,0
15.01.2019 15:00:00 -4,9 -8,5 2 1 14 7 ZZW 993,2 49 0,0
15.01.2019 14:00:00 -4,4 -8,3 7 4 14 8 W 993,2 50 0,0
15.01.2019 13:00:00 -3,8 -7,9 8 4 26 14 W 993,4 49 0,0
15.01.2019 12:00:00 -3,9 -7,5 8 4 18 10 WNW 993,3 50 0,0
15.01.2019 11:00:00 -4,3 -7,4 6 4 19 11 W 993,3 48 0,0
15.01.2019 10:00:00 -4,1 -7,4 10 5 22 12 WNW 993,4 49 0,0
15.01.2019 09:00:00 -3,3 -7,1 14 7 28 15 WNW 993,3 40 0,0
15.01.2019 08:00:00 -2,3 -6,0 10 5 23 12 WNW 992,4 44 0,0
15.01.2019 07:00:00 -2,3 -5,8 10 5 27 15 NW 991,3 40 0,0
15.01.2019 06:00:00 -2,5 -5,8 12 6 35 19 NW 990,7 40 0,0
15.01.2019 05:00:00 -3,3 -4,6 14 7 34 19 NW 989,9 3,2 0,5
15.01.2019 04:00:00 -3,4 -4,8 15 8 35 19 WNW 989,1 2,1 0,3
15.01.2019 03:00:00 -3,7 -4,7 13 7 30 16 WNW 988,3 1,0 0,3
15.01.2019 02:00:00 -3,8 -4,9 15 8 38 20 NW 987,5 0,8 0,2
15.01.2019 01:00:00 -4,0 -5,4 15 8 32 18 WNW 986,8 1,6 0,1
15.01.2019 00:00:00 -4,1 -5,3 15 8 33 18 WNW 986,3 1,2 0,4
14.01.2019 23:00:00 -4,0 -5,7 15 8 36 20 WNW 985,8 1,5 0,2
14.01.2019 22:00:00 -3,7 -7,3 17 9 42 23 WNW 985,4 3,4 0,0
14.01.2019 21:00:00 - - - - 42 23 - - - -
14.01.2019 20:00:00 -2,9 -9,0 16 9 35 19 WNW 984,1 50 0,0
14.01.2019 19:00:00 -3,2 -9,0 15 8 37 20 WNW 983,8 50 0,0
14.01.2019 18:00:00 -3,5 -8,6 14 8 30 16 WNW 983,5 50 0,0
14.01.2019 17:00:00 -3,7 -8,2 12 7 27 15 WNW 982,9 50 0,0
14.01.2019 16:00:00 -3,8 -7,9 12 6 25 13 WNW 982,4 50 0,0
14.01.2019 15:00:00 -3,5 -8,0 11 6 24 13 WNW 981,5 50 0,0
14.01.2019 14:00:00 -3,3 -8,7 13 7 27 14 WNW 980,6 50 0,0
14.01.2019 13:00:00 -3,6 -9,4 11 6 22 12 WNW 980,0 50 0,0
14.01.2019 12:00:00 -4,3 -9,9 9 5 20 11 W 979,4 50 0,0
14.01.2019 11:00:00 -5,0 -9,4 7 4 24 13 W 979,5 50 0,0
14.01.2019 10:00:00 -5,5 -9,2 11 6 32 17 W 979,6 50 0,0
14.01.2019 09:00:00 -5,5 -9,2 13 7 29 16 WNW 979,3 50 0,0
14.01.2019 08:00:00 -5,7 -9,6 10 6 23 13 WNW 978,6 50 0,0
14.01.2019 07:00:00 -5,4 -9,5 8 5 24 13 WNW 978,2 50 0,0
14.01.2019 06:00:00 -5,6 -9,2 9 5 31 17 WNW 977,8 50 0,0
14.01.2019 05:00:00 -5,3 -9,0 13 7 31 17 NW 977,5 50 0,0
14.01.2019 04:00:00 -4,7 -8,5 14 8 28 15 NW 976,9 50 0,0
14.01.2019 03:00:00 -4,1 -7,4 10 5 29 16 WNW 976,6 50 0,0
14.01.2019 02:00:00 -3,0 -5,8 14 7 29 16 WNW 975,9 50 0,0
14.01.2019 01:00:00 -2,3 -4,3 13 7 27 14 NW 975,2 50 0,0
14.01.2019 00:00:00 -1,9 -3,3 9 5 21 11 NW 974,8 50 0,0
13.01.2019 23:00:00 -2,0 -2,7 8 4 20 11 NW 974,6 2,5 0,3
13.01.2019 22:00:00 -2,3 -3,1 9 5 17 9 WNW 974,6 18 0,0
13.01.2019 21:00:00 -2,6 -3,3 4 2 8 5 W 974,8 6 0,1
13.01.2019 20:00:00 -2,3 -3,0 3 1 8 5 W 975,0 3,5 0,0
13.01.2019 19:00:00 -2,2 -2,8 2 1 5 3 WZW 975,2 10 0,2
13.01.2019 18:00:00 -2,1 -2,8 3 2 6 4 WZW 975,6 2,5 0,3
13.01.2019 17:00:00 -1,9 -2,7 0 0 10 6 N 976,2 2,0 0,2
13.01.2019 16:00:00 -1,7 -3,3 4 2 13 7 Z 977,0 5 0,0
13.01.2019 15:00:00 -1,6 -3,9 0 0 9 5 N 978,0 31 0,0
13.01.2019 14:00:00 -1,6 -4,4 3 2 13 7 Z 978,9 43 0,0
13.01.2019 13:00:00 -1,6 -4,8 5 3 12 7 ZZW 980,4 44 0,0
13.01.2019 12:00:00 -1,9 -5,6 4 2 11 6 ZZW 981,8 45 0,0
13.01.2019 11:00:00 -2,5 -5,3 4 2 10 5 ZZW 983,5 50 0,0
13.01.2019 10:00:00 -2,7 -5,0 2 1 8 4 ZZO 984,8 49 0,0
13.01.2019 09:00:00 -2,9 -4,8 0 0 8 4 N 986,0 50 0,0
13.01.2019 08:00:00 -3,1 -4,8 0 0 7 4 N 987,2 50 0,0
13.01.2019 07:00:00 -3,2 -4,9 0 0 7 4 N 988,0 50 0,0
13.01.2019 06:00:00 -3,3 -4,9 2 1 9 5 W 989,1 50 0,0
13.01.2019 05:00:00 -4,0 -5,1 0 0 5 3 N 990,0 45 0,0
13.01.2019 04:00:00 -3,8 -5,1 0 0 6 3 N 991,1 50 0,0
13.01.2019 03:00:00 -3,8 -5,1 2 1 7 4 WZW 992,3 50 0,0
13.01.2019 02:00:00 -4,9 -5,7 0 0 6 4 N 992,9 44 0,0
13.01.2019 01:00:00 - - - - - - - - - -
13.01.2019 00:00:00 -4,1 -5,2 3 2 8 4 WZW 994,0 46 0,0
12.01.2019 23:00:00 -4,2 -4,9 3 2 7 4 W 994,4 39 0,0
12.01.2019 22:00:00 -4,9 -5,6 3 1 5 3 WZW 994,8 39 0,0
12.01.2019 21:00:00 -4,8 -5,5 3 1 5 3 ZW 995,4 39 0,0
12.01.2019 20:00:00 -4,4 -5,2 2 1 8 5 W 995,8 41 0,0
12.01.2019 19:00:00 -4,6 -5,4 3 2 6 3 WZW 996,0 45 0,0
12.01.2019 18:00:00 -5,0 -5,7 3 1 6 3 ZW 996,0 41 0,0
12.01.2019 17:00:00 -5,4 -6,1 2 1 6 3 ZW 996,3 34 0,0
12.01.2019 16:00:00 - - - - 7 4 - - - -
12.01.2019 15:00:00 -3,9 -5,3 0 0 9 5 N 997,0 47 0,0
12.01.2019 14:00:00 -2,4 -4,7 3 1 10 5 ZW 997,2 50 0,0
12.01.2019 13:00:00 -0,7 -4,6 3 2 14 7 WZW 997,4 50 0,0
12.01.2019 12:00:00 -0,5 -4,6 6 3 17 9 W 998,2 50 0,0
12.01.2019 11:00:00 -1,1 -4,6 5 3 13 7 W 998,4 49 0,0
12.01.2019 10:00:00 -1,2 -4,7 5 3 13 7 W 998,7 48 0,0
12.01.2019 09:00:00 -1,3 -4,6 4 2 15 8 W 999,2 50 0,0
12.01.2019 08:00:00 -1,1 -4,3 5 3 15 8 W 999,4 50 0,0
12.01.2019 07:00:00 -0,8 -4,5 7 4 21 11 W 999,6 50 0,0
12.01.2019 06:00:00 -0,6 -4,5 9 5 21 12 W 999,6 50 0,0
12.01.2019 05:00:00 -0,4 -4,6 7 4 19 11 WNW 999,8 50 0,0
12.01.2019 04:00:00 -0,2 -4,6 9 5 25 14 WNW 1000,2 50 0,0
12.01.2019 03:00:00 0,2 -4,8 14 7 34 18 WNW 1000,6 50 0,0
12.01.2019 02:00:00 0,3 -4,7 12 6 31 17 WNW 1000,7 50 0,0
12.01.2019 01:00:00 0,5 -4,5 15 8 31 17 WNW 1000,8 50 0,0
12.01.2019 00:00:00 0,2 -4,4 14 8 28 15 WNW 1000,9 50 0,0
11.01.2019 23:00:00 -0,2 -4,5 10 5 29 16 W 1000,8 50 0,0
11.01.2019 22:00:00 -0,2 -4,5 10 5 30 16 W 1000,4 50 0,0
11.01.2019 21:00:00 -0,1 -4,7 10 6 26 14 W 1000,1 50 0,0
11.01.2019 20:00:00 0,0 -4,6 9 5 29 16 W 1000,0 50 0,0
11.01.2019 19:00:00 0,5 -4,7 11 6 31 17 W 999,8 50 0,0
11.01.2019 18:00:00 0,5 -4,3 14 7 29 15 W 999,5 50 0,0
11.01.2019 17:00:00 0,7 -4,3 9 5 28 15 W 999,6 50 0,0
11.01.2019 16:00:00 0,9 -4,3 11 6 30 16 W 999,9 50 0,0
11.01.2019 15:00:00 1,5 -4,2 13 7 37 20 WNW 999,8 50 0,0
11.01.2019 14:00:00 2,2 -4,3 16 9 34 18 WNW 999,8 48 0,0
11.01.2019 13:00:00 2,3 -3,8 16 9 32 18 WNW 1000,0 50 0,0
11.01.2019 12:00:00 2,1 -3,2 16 9 36 19 WNW 1000,5 45 0,0
11.01.2019 11:00:00 1,6 -2,2 10 5 23 13 WNW 1000,9 50 0,0
11.01.2019 10:00:00 1,4 -1,2 9 5 19 10 W 1000,9 46 0,0
11.01.2019 09:00:00 1,0 0,0 8 4 18 10 WZW 1001,1 50 0,0
11.01.2019 08:00:00 1,0 0,4 9 5 18 10 WZW 1001,2 28 0,0
11.01.2019 07:00:00 1,3 0,9 9 5 23 13 W 1001,2 17 0,0
11.01.2019 06:00:00 1,3 1,0 9 5 24 13 WZW 1001,2 15 0,0
11.01.2019 05:00:00 1,1 0,8 9 5 23 12 WZW 1001,6 11 0,0
11.01.2019 04:00:00 1,1 0,7 11 6 33 18 WZW 1002,0 11 0,0
11.01.2019 03:00:00 0,9 0,3 11 6 31 17 WZW 1002,7 18 0,0
11.01.2019 02:00:00 0,7 -0,2 11 6 27 15 WZW 1003,8 48 0,0
11.01.2019 01:00:00 0,3 -0,8 11 6 29 16 WZW 1004,9 45 0,0

tt = temperatuur
td = dauwpunt
ff = windsnelheid
fx = windstoten
dd = windrichting
ppp = luchtdruk
vv = zicht
rr = neerslag

Weerstations in de omgeving